Presure
89 235 264 257 300 280 371 358 353 329 311 298 291 279 293 308 291 292 274 267 268 256 241 247 258 239 227 238 238 215 219 220 205 191 192 193 193 191 180 176 188 179 184 174 195 198 199
191 227 256 250 309 281 361 343 326 328 327 313 295 287 278 287 313 277 273 251 270 265 255 243 246 247 256 228 237 233 227 208 215 209 211 209 205 198 196 197 199 193 194 199 188 178 186
198 222 236 253 305 244 337 312 338 312 304 315 317 296 284 279 267 303 268 264 262 270 266 245 245 243 236 256 244 230 235 223 220 215 211 223 205 217 207 202 205 200 206 229 219 207 205
181 226 222 283 151 136 321 344 331 319 315 304 303 316 289 283 280 259 293 276 260 273 256 235 246 248 247 239 245 226 239 233 226 210 209 210 213 210 207 208 211 207 201 207 214 208 227
234 211 232 265 153 284 330 347 341 331 310 300 303 293 299 295 279 278 252 289 299 265 258 250 248 247 247 243 237 234 239 237 230 229 218 209 212 215 213 206 205 211 211 208 216 217 229
214 232 202 256 229 288 324 341 329 307 291 280 272 277 262 284 278 279 263 266 284 297 270 255 241 246 235 233 247 230 246 243 242 224 229 214 214 216 210 218 203 207 207 207 221 208 198
220 235 236 172 306 298 326 347 324 314 498 552 536 523 557 285 281 263 252 252 259 258 298 342 256 262 245 241 237 247 240 246 233 233 238 227 229 216 214 213 214 205 205 203 214 207 222
224 235 231 249 251 309 356 347 309 603 576 504 477 479 501 555 314 268 264 267 259 230 251 260 318 334 268 256 251 243 247 240 258 238 240 234 226 223 226 212 212 201 202 209 213 212 176
195 230 241 258 128 331 343 333 336 594 478 478 457 444 467 559 541 351 259 256 246 246 235 251 314 312 316 297 265 261 247 251 255 250 256 245 224 227 218 216 215 213 206 204 211 214 211
203 228 241 266 295 360 347 314 438 438 498 464 428 422 440 458 575 478 271 250 242 245 239 254 300 299 300 300 302 293 261 268 261 275 290 302 226 208 208 222 224 221 216 211 210 213 211
213 232 231 298 302 359 354 312 444 517 448 420 396 420 425 430 483 464 350 254 245 238 248 249 299 290 283 281 277 282 282 278 268 268 270 261 235 222 234 233 222 222 223 213 208 207 211
160 232 242 304 310 344 342 430 509 469 426 413 413 409 417 466 485 479 347 286 246 241 249 256 286 280 271 266 264 258 259 258 255 248 256 244 228 226 231 237 233 220 213 213 213 214 217
217 233 264 302 315 352 328 480 548 446 389 405 402 411 433 482 496 489 331 292 246 243 241 239 277 270 264 261 256 253 249 253 256 257 259 251 244 245 239 231 230 226 216 218 218 221 231
216 236 269 300 269 362 318 587 472 439 415 402 405 436 435 480 457 371 319 296 255 251 241 245 276 267 259 257 253 250 244 234 227 226 225 226 223 223 224 222 219 217 222 230 267 264 258
213 232 285 305 349 362 316 624 447 421 412 410 406 462 447 483 465 337 305 291 262 241 231 232 278 259 250 254 241 236 229 226 227 225 220 221 230 267 266 266 265 264 258 251 253 256 261
216 236 297 281 348 358 316 470 407 413 415 415 416 461 476 461 380 330 303 291 257 247 229 250 275 254 250 243 233 229 229 221 219 267 274 269 260 253 251 257 259 252 237 221 220 220 217
218 235 296 320 346 350 312 435 425 431 417 427 452 463 507 469 345 313 299 299 253 220 226 269 272 251 245 243 229 225 213 267 281 269 259 252 248 248 252 221 215 208 218 213 218 273 293
237 273 307 321 346 348 309 456 437 465 451 427 444 458 488 352 324 313 310 256 247 223 236 273 259 253 243 231 226 215 207 290 269 260 252 242 223 216 210 215 209 216 223 269 261 276 279
239 280 293 322 342 354 319 496 446 435 436 452 443 486 353 333 319 320 303 251 242 223 226 270 256 247 233 226 219 215 208 208 211 214 211 213 213 220 217 213 220 268 241 236 263 124 259
281 291 310 315 338 356 328 477 488 485 437 456 461 468 349 324 316 324 257 252 239 227 221 265 254 243 229 219 217 217 215 209 211 222 218 218 211 209 168 267 245 251 249 248 223 259 251
286 270 304 305 332 345 325 290 421 396 480 480 440 436 320 309 316 307 262 247 237 226 220 262 251 237 228 220 214 215 218 217 218 217 216 220 207 84 238 224 236 208 235 243 233 246 234
289 258 301 298 321 323 324 293 389 386 398 358 349 353 335 321 315 307 263 243 237 137 222 257 253 234 232 223 221 221 223 226 223 226 239 213 247 233 206 243 186 219 161 228 234 231 248
271 255 300 296 320 317 316 297 359 386 366 372 347 326 327 321 313 292 258 249 239 226 253 253 249 237 230 228 221 222 216 221 222 221 213 273 234 216 166 216 236 231 226 237 210 237 234
265 274 291 295 313 303 314 298 285 390 351 370 344 334 338 325 300 307 252 243 234 222 249 254 244 238 223 228 228 220 222 228 210 215 269 242 219 166 193 229 244 233 226 223 211 225 244
264 288 283 297 315 296 312 297 271 388 343 362 362 335 325 318 313 301 254 242 232 221 222 249 249 240 229 225 222 219 232 216 213 249 232 198 203 224 238 240 236 231 219 175 207 122 226
278 278 281 296 290 294 319 296 271 367 385 308 338 349 329 309 318 316 262 243 235 229 219 210 202 243 241 242 242 227 214 219 221 261 245 219 228 239 210 230 228 224 204 220 220 212 232
104 279 284 290 288 316 328 299 272 353 343 309 347 336 315 298 319 322 328 249 236 228 230 229 225 248 245 218 227 220 213 216 263 240 219 207 226 245 212 229 222 182 209 227 214 209 214
257 280 282 284 311 319 334 303 275 363 346 313 330 312 311 311 315 329 312 236 243 230 232 231 232 234 244 232 216 211 214 223 243 237 242 228 188 196 231 226 194 175 208 223 221 211 209
281 284 283 285 338 330 336 299 384 366 327 309 315 309 306 308 304 306 313 253 237 247 230 226 232 228 226 225 206 208 221 225 257 231 204 161 161 178 183 183 221 221 228 221 214 175 220
Wind_Speed
36 90 102 95 82 79 46 45 44 41 42 46 46 46 42 54 64 70 79 82 83 82 79 80 80 88 82 87 87 88 90 90 93 87 89 92 91 94 97 93 92 97 102 98 93 88 88
97 90 103 95 83 83 46 43 41 40 43 45 49 51 51 48 47 68 65 68 88 82 84 82 80 81 84 84 87 87 88 87 90 90 91 93 94 95 95 92 90 92 91 90 95 94 91
85 89 98 102 87 83 64 65 42 45 39 42 47 54 57 55 54 48 70 69 72 83 84 83 85 82 80 76 88 86 87 86 87 87 86 86 85 84 88 90 89 89 88 80 84 90 89
101 94 93 106 81 78 73 57 52 50 45 41 44 49 57 62 59 57 52 71 73 78 76 76 81 83 81 81 78 86 88 87 86 86 85 85 84 84 85 81 81 81 83 81 77 78 72
103 100 105 112 79 92 79 66 57 53 48 52 51 51 53 60 64 63 56 55 69 76 81 80 83 78 82 82 81 84 85 85 85 86 86 84 83 81 83 83 80 77 78 77 74 72 66
91 108 94 113 101 98 88 79 71 63 55 54 58 62 57 61 63 65 65 60 60 68 81 84 74 80 74 74 81 79 83 84 87 84 86 83 82 84 80 83 81 77 74 73 72 73 76
97 112 110 88 102 101 94 87 81 80 72 50 44 45 31 70 67 64 63 65 66 51 53 47 86 86 85 82 81 83 81 79 81 82 87 85 84 84 84 79 79 76 75 75 75 73 71
102 114 111 117 98 103 95 92 89 33 28 27 34 33 25 17 79 71 70 71 62 50 60 66 49 52 90 88 82 77 79 76 79 82 84 81 82 83 82 78 79 79 76 73 73 73 71
85 113 117 121 76 105 100 96 95 24 32 22 19 23 16 16 26 70 70 70 61 64 65 61 46 47 52 78 83 78 73 71 75 73 77 82 79 82 80 79 80 80 76 74 73 73 72
89 112 119 123 110 102 101 98 60 48 12 9 19 19 13 10 14 43 77 74 66 64 65 59 42 44 45 49 56 70 75 77 67 72 65 63 77 74 74 80 81 81 79 75 72 73 73
100 119 120 114 108 104 103 100 59 7 12 23 23 17 12 15 23 43 75 79 72 67 65 57 40 40 42 43 45 49 52 53 53 54 56 63 73 72 78 83 77 77 78 73 71 72 72
95 122 124 112 108 107 103 70 35 8 21 18 12 14 15 18 25 43 81 82 74 73 61 48 39 41 42 41 44 45 45 47 51 53 55 61 66 68 72 77 79 72 70 74 75 75 74
110 123 126 110 107 105 101 51 5 14 32 16 15 19 16 11 28 54 83 85 78 70 50 49 41 43 42 43 43 42 43 44 45 47 51 55 59 63 65 67 70 72 72 75 76 78 82
111 124 124 111 115 102 98 28 17 10 14 16 20 21 7 11 41 82 83 83 76 63 51 49 43 43 41 41 40 40 42 42 44 45 49 49 53 57 61 62 64 65 68 78 70 72 72
111 123 116 108 104 101 95 22 16 15 20 15 17 21 5 18 45 86 81 77 75 57 49 47 42 42 38 39 41 41 42 43 41 43 46 48 51 47 48 50 50 51 51 59 60 64 68
116 123 109 113 104 99 93 22 49 31 23 16 13 11 11 35 82 83 76 75 61 50 47 43 44 44 40 43 43 41 37 36 39 33 31 36 33 33 35 36 37 39 45 44 48 53 61
117 121 107 101 101 97 92 52 42 27 23 16 13 5 13 43 83 75 75 60 54 45 41 39 45 41 41 40 37 34 37 32 28 26 26 26 25 28 25 26 29 36 42 49 53 50 44
125 116 101 99 98 92 88 38 36 23 12 8 7 16 25 76 77 76 71 60 58 43 43 40 42 40 39 39 38 39 38 23 20 22 22 20 25 22 23 24 35 40 42 25 29 28 33
121 109 103 98 95 88 85 27 27 20 16 8 13 7 76 71 73 71 61 58 52 40 36 42 43 43 41 39 39 38 38 33 30 29 28 25 21 16 22 33 32 15 28 36 19 15 33
109 98 98 98 95 89 84 36 23 13 14 9 11 33 74 71 56 62 56 56 47 41 36 43 43 42 42 42 40 37 35 32 29 22 21 18 15 22 12 4 15 17 15 16 35 23 27
98 102 96 96 93 90 84 75 24 30 24 21 43 44 47 49 55 58 59 53 45 42 36 43 43 43 43 41 37 34 29 26 23 20 18 15 21 9 21 23 18 25 10 10 14 27 23
86 98 92 93 91 88 81 76 37 20 39 40 49 59 59 58 52 53 59 50 47 8 35 40 42 42 41 37 35 29 27 23 21 17 16 15 10 15 21 9 16 3 23 9 17 17 26
88 91 90 90 86 82 77 72 46 14 12 39 38 33 46 44 50 53 56 48 45 39 39 41 41 40 37 35 31 27 23 19 15 13 13 15 17 27 23 16 5 4 2 11 8 20 21
85 81 82 84 81 78 70 70 61 1 4 26 30 38 42 47 40 42 49 44 44 38 38 40 40 39 34 33 30 23 21 18 13 12 15 10 10 20 13 8 4 9 2 3 6 14 25
82 72 72 83 76 75 64 66 60 2 5 14 33 37 39 40 44 41 54 50 45 39 37 38 38 38 34 30 25 23 21 14 13 17 13 15 10 9 9 6 7 12 4 4 10 8 18
67 70 68 81 75 70 60 62 57 7 13 2 22 40 41 29 36 43 53 52 46 44 38 33 27 36 35 33 30 23 15 15 16 18 13 15 7 5 9 9 10 7 11 10 15 12 22
23 68 66 74 70 66 57 58 54 15 8 4 20 28 24 22 29 34 37 55 48 44 43 39 36 35 34 25 25 19 15 17 22 18 15 13 13 5 12 6 11 2 2 6 8 7 12
71 66 64 66 80 64 57 56 53 19 20 10 23 18 20 21 21 20 33 40 51 45 45 40 38 36 34 30 23 18 17 18 18 23 17 15 12 13 10 9 8 5 2 7 5 6 8
66 65 63 65 72 64 55 55 24 28 17 14 22 23 23 20 21 24 28 61 44 52 43 38 39 34 32 30 24 20 20 18 22 22 16 22 19 10 7 11 9 7 5 7 4 8 4
Wind_Direction
327 354 357 356 349 349 319 311 303 289 274 270 260 258 249 246 239 236 236 238 236 231 234 231 232 232 231 235 234 234 232 231 233 235 238 241 241 241 241 245 245 247 245 251 251 252 250
339 351 356 354 346 348 329 323 316 299 289 269 261 253 252 245 247 239 236 235 236 233 230 231 230 231 233 232 235 235 233 232 233 234 235 237 238 241 243 247 247 246 248 248 247 253 254
330 350 354 353 344 346 338 337 311 313 301 288 269 251 248 246 250 241 237 235 235 236 230 230 231 229 230 233 233 232 234 233 233 234 236 239 239 241 242 244 246 248 250 250 248 250 254
335 352 344 350 338 340 339 329 322 310 301 286 275 267 248 245 240 250 239 235 234 235 232 230 232 230 228 228 231 232 232 232 233 234 235 238 238 239 241 244 246 246 246 248 248 248 252
354 343 349 351 338 344 338 330 325 318 302 291 276 262 253 242 241 235 247 234 233 230 229 229 232 231 230 232 230 229 231 232 233 234 235 237 240 241 242 242 244 246 247 247 250 250 250
349 352 344 349 346 343 338 332 329 319 307 290 277 269 262 243 238 232 237 234 231 230 228 227 233 232 230 230 233 234 232 230 231 234 234 236 238 239 240 244 242 244 246 248 252 246 244
351 353 352 340 340 341 336 332 329 326 299 297 298 292 291 247 233 236 238 238 233 231 228 234 229 231 231 230 229 233 234 233 232 234 234 235 238 239 239 242 244 243 244 245 249 245 250
350 353 352 348 342 341 335 335 333 307 302 300 296 299 296 285 230 228 229 226 232 227 227 228 228 225 230 232 233 230 231 233 234 233 235 235 235 237 240 240 243 242 243 247 250 249 252
336 352 350 347 341 341 338 337 334 306 308 291 292 303 325 311 233 216 223 227 229 227 234 237 223 221 222 229 232 231 231 233 235 235 235 233 234 236 239 241 242 244 244 246 248 251 251
343 351 349 347 343 340 340 340 331 320 303 299 294 299 299 333 262 201 212 221 224 224 230 232 221 215 216 219 224 231 233 236 236 240 237 228 233 236 239 241 243 244 246 248 250 251 253
349 351 348 343 344 343 342 342 334 283 301 300 306 290 267 228 227 193 200 210 219 223 221 225 213 209 210 212 216 219 220 222 225 227 227 226 231 236 238 241 244 245 246 248 250 253 256
346 349 347 343 345 345 345 339 325 291 316 312 333 300 279 267 217 183 183 205 214 218 218 217 206 204 207 207 211 214 216 219 223 226 225 227 232 237 240 241 244 245 248 251 254 258 261
347 348 344 344 346 346 346 334 272 318 337 309 317 304 300 239 186 176 184 201 209 215 209 215 201 201 203 204 207 210 213 216 218 222 225 229 234 238 240 242 245 247 251 254 257 262 265
346 346 344 345 347 348 348 328 332 325 323 322 346 329 284 194 176 171 185 198 204 205 206 210 198 196 198 202 206 208 208 211 215 219 224 227 232 236 240 243 246 250 255 259 265 265 265
345 345 344 345 347 351 351 337 358 346 327 354 342 331 196 174 169 173 187 195 197 197 200 205 194 192 195 196 199 203 208 215 221 225 229 233 237 240 246 250 254 260 263 265 268 271 271
343 344 345 345 349 352 353 17 358 346 339 349 355 329 169 159 162 175 188 197 192 191 198 200 190 189 192 195 196 202 210 216 224 227 230 234 237 241 247 253 260 264 261 265 271 267 265
341 342 345 347 351 353 356 351 351 342 340 350 358 90 157 159 166 175 187 186 185 190 197 191 186 190 190 194 194 197 209 216 218 221 223 227 231 245 247 242 253 257 270 266 273 284 285
338 340 345 348 351 355 357 346 351 345 358 11 106 132 154 158 167 178 185 173 182 188 193 185 186 188 187 189 192 198 209 211 200 199 204 209 226 243 250 268 256 267 283 288 286 302 310
336 341 344 348 350 356 359 355 1 2 13 31 145 184 158 167 171 178 176 177 181 187 189 182 184 183 185 189 194 200 208 212 214 217 226 232 243 266 278 264 274 263 272 281 325 268 319
336 342 346 348 349 355 360 12 27 34 40 57 126 146 163 169 175 175 175 177 181 185 188 181 184 183 186 193 198 202 208 214 220 220 228 243 254 263 277 247 268 277 277 295 284 348 346
337 338 347 348 350 352 358 4 42 24 65 87 131 145 164 168 171 171 174 178 183 189 191 181 185 185 189 196 202 205 208 213 219 226 236 255 255 290 273 274 289 266 287 332 340 355 329
339 338 349 349 349 349 355 1 359 26 125 131 144 153 170 176 176 173 174 181 182 218 191 182 188 192 192 196 202 206 210 218 223 235 251 261 242 258 273 258 256 335 274 358 15 360 7
335 338 350 349 347 349 351 356 357 17 100 154 164 165 175 177 178 175 178 182 180 189 182 185 190 194 196 200 202 204 206 215 228 239 252 221 246 255 258 274 243 130 313 43 352 12 18
334 341 350 349 346 347 348 348 359 341 29 165 171 174 173 184 182 182 181 182 185 191 186 188 193 194 199 203 206 207 212 222 224 246 232 216 230 241 244 265 100 149 116 20 294 31 17
334 344 348 349 345 344 345 344 351 349 322 180 178 182 188 189 194 190 182 187 190 194 197 189 193 198 202 202 204 208 219 217 231 235 226 223 209 203 218 160 137 167 153 269 58 282 42
334 340 346 350 349 343 341 339 345 254 174 52 183 185 193 192 199 201 185 190 193 197 203 202 203 197 202 206 210 206 208 223 239 213 200 210 190 179 230 143 151 131 278 65 60 50 38
336 338 344 349 349 342 339 336 339 279 224 302 185 190 192 190 208 209 212 190 197 201 200 198 201 197 201 201 204 207 211 228 214 203 213 196 170 236 216 167 148 229 85 76 73 61 48
331 336 342 347 344 341 337 334 336 221 203 248 182 190 190 205 211 217 203 206 199 206 201 199 199 200 197 201 201 201 215 232 218 199 198 198 177 228 168 179 234 256 208 97 110 61 54
329 336 340 346 336 340 335 332 218 201 231 208 198 197 192 178 187 195 198 196 210 198 208 208 202 204 204 205 198 205 221 225 209 210 226 216 221 197 209 217 207 223 207 169 184 261 43